| time (UTC) | temp F | wind direction | speed MPH | gust MPH | rain 1hr in | rain 24hr in | rain mn in | humidity % | barometer mb |
| 20260904224557 | 63 | 271 | 0.0 | 1.0 | 0.00 | 0.00 | 0.00 | 73 | 1020.3 |
| 20260904223107 | 64 | 271 | 0.0 | 1.0 | 0.00 | 0.00 | 0.00 | 71 | 1020.1 |
| 20260904221600 | 65 | 261 | 0.0 | 1.0 | 0.00 | 0.00 | 0.00 | 69 | 1020.0 |
| 20260904220002 | 66 | 208 | 0.0 | 1.0 | 0.00 | 0.00 | 0.00 | 67 | 1019.9 |
| 20260904214554 | 67 | 212 | 0.0 | 1.0 | 0.00 | 0.00 | 0.00 | 64 | 1019.9 |
| 20260904213046 | 67 | 213 | 0.0 | 1.0 | 0.00 | 0.00 | 0.00 | 65 | 1019.8 |
| 20260904211545 | 67 | 259 | 0.0 | 1.0 | 0.00 | 0.00 | 0.00 | 64 | 1019.8 |
| 20260904210049 | 68 | 252 | 0.0 | 1.0 | 0.00 | 0.00 | 0.00 | 63 | 1019.7 |
| 20260904204559 | 69 | 139 | 0.0 | 1.0 | 0.00 | 0.00 | 0.00 | 61 | 1019.5 |
| 20260904203050 | 71 | 136 | 0.0 | 1.0 | 0.00 | 0.00 | 0.00 | 57 | 1019.4 |
| 20260904201559 | 72 | 136 | 0.0 | 1.0 | 0.00 | 0.00 | 0.00 | 55 | 1019.3 |
| 20260904200113 | 74 | 187 | 0.0 | 1.0 | 0.00 | 0.00 | 0.00 | 52 | 1019.1 |
| 20260904194606 | 76 | 255 | 0.0 | 3.0 | 0.00 | 0.00 | 0.00 | 49 | 1019.0 |
| 20260904193057 | 77 | 250 | 0.0 | 4.0 | 0.00 | 0.00 | 0.00 | 49 | 1018.8 |
| 20260904191553 | 78 | 245 | 0.0 | 4.0 | 0.00 | 0.00 | 0.00 | 48 | 1018.5 |
| 20260904190056 | 78 | 273 | 0.0 | 2.0 | 0.00 | 0.00 | 0.00 | 46 | 1018.2 |
| 20260904184606 | 80 | 264 | 0.0 | 4.0 | 0.00 | 0.00 | 0.00 | 44 | 1017.9 |
| 20260904183047 | 81 | 262 | 0.0 | 6.0 | 0.00 | 0.00 | 0.00 | 41 | 1017.7 |
| 20260904181551 | 83 | 268 | 2.0 | 6.0 | 0.00 | 0.00 | 0.00 | 39 | 1017.4 |
| 20260904180114 | 85 | 257 | 2.0 | 4.0 | 0.00 | 0.00 | 0.00 | 37 | 1017.3 |
| 20260904174613 | 87 | 269 | 2.0 | 6.0 | 0.00 | 0.00 | 0.00 | 35 | 1017.0 |
| 20260904173051 | 88 | 259 | 1.0 | 8.0 | 0.00 | 0.00 | 0.00 | 34 | 1016.9 |
| 20260904171548 | 88 | 258 | 3.0 | 7.0 | 0.00 | 0.00 | 0.00 | 34 | 1016.8 |
| 20260904170106 | 89 | 252 | 2.0 | 11.0 | 0.00 | 0.00 | 0.00 | 33 | 1016.8 |
| 20260904164557 | 90 | 243 | 3.0 | 8.0 | 0.00 | 0.00 | 0.00 | 32 | 1016.9 |
| 20260904163055 | 90 | 188 | 3.0 | 9.0 | 0.00 | 0.00 | 0.00 | 32 | 1016.7 |
| 20260904161553 | 91 | 321 | 4.0 | 10.0 | 0.00 | 0.00 | 0.00 | 32 | 1016.7 |
| 20260904160110 | 91 | 280 | 6.0 | 12.0 | 0.00 | 0.00 | 0.00 | 32 | 1016.8 |
| 20260904154601 | 92 | 238 | 5.0 | 12.0 | 0.00 | 0.00 | 0.00 | 31 | 1016.7 |
| 20260904153107 | 93 | 229 | 3.0 | 10.0 | 0.00 | 0.00 | 0.00 | 34 | 1016.8 |
| 20260904151607 | 94 | 276 | 2.0 | 7.0 | 0.00 | 0.00 | 0.00 | 33 | 1016.6 |
| 20260904150105 | 93 | 243 | 3.0 | 11.0 | 0.00 | 0.00 | 0.00 | 34 | 1016.6 |
| 20260904144603 | 94 | 286 | 4.0 | 9.0 | 0.00 | 0.00 | 0.00 | 33 | 1016.5 |
| 20260904143105 | 94 | 214 | 2.0 | 9.0 | 0.00 | 0.00 | 0.00 | 34 | 1016.6 |
| 20260904141558 | 94 | 267 | 2.0 | 7.0 | 0.00 | 0.00 | 0.00 | 33 | 1016.7 |
| 20260904140104 | 94 | 202 | 5.0 | 12.0 | 0.00 | 0.00 | 0.00 | 33 | 1016.9 |
| 20260904134553 | 93 | 271 | 4.0 | 10.0 | 0.00 | 0.00 | 0.00 | 33 | 1016.9 |
| 20260904133108 | 94 | 171 | 2.0 | 8.0 | 0.00 | 0.00 | 0.00 | 34 | 1017.1 |
| 20260904131553 | 93 | 248 | 3.0 | 8.0 | 0.00 | 0.00 | 0.00 | 36 | 1017.2 |
| 20260904130104 | 93 | 264 | 4.0 | 12.0 | 0.00 | 0.00 | 0.00 | 33 | 1017.5 |
| 20260904124553 | 93 | 269 | 4.0 | 10.0 | 0.00 | 0.00 | 0.00 | 35 | 1017.5 |
| 20260904123048 | 94 | 205 | 2.0 | 9.0 | 0.00 | 0.00 | 0.00 | 34 | 1017.8 |
| 20260904121548 | 92 | 235 | 2.0 | 9.0 | 0.00 | 0.00 | 0.00 | 33 | 1017.9 |
| 20260904120111 | 92 | 227 | 4.0 | 8.0 | 0.00 | 0.00 | 0.00 | 34 | 1018.2 |
| 20260904114604 | 92 | 221 | 4.0 | 10.0 | 0.00 | 0.00 | 0.00 | 36 | 1018.2 |
| 20260904113052 | 91 | 287 | 3.0 | 11.0 | 0.00 | 0.00 | 0.00 | 35 | 1018.3 |
| 20260904111549 | 90 | 243 | 1.0 | 5.0 | 0.00 | 0.00 | 0.00 | 37 | 1018.3 |
| 20260904110057 | 89 | 46 | 0.0 | 5.0 | 0.00 | 0.00 | 0.00 | 39 | 1018.2 |
| 20260904104604 | 89 | 207 | 0.0 | 3.0 | 0.00 | 0.00 | 0.00 | 39 | 1018.2 |
| 20260904103103 | 88 | 238 | 0.0 | 5.0 | 0.00 | 0.00 | 0.00 | 39 | 1018.4 |
| 20260904101556 | 87 | 232 | 1.0 | 4.0 | 0.00 | 0.00 | 0.00 | 41 | 1018.5 |
| 20260904100046 | 86 | 49 | 0.0 | 4.0 | 0.00 | 0.00 | 0.00 | 40 | 1019.0 |
| 20260904094554 | 86 | 27 | 0.0 | 5.0 | 0.00 | 0.00 | 0.00 | 40 | 1019.1 |
| 20260904093059 | 85 | 252 | 1.0 | 3.0 | 0.00 | 0.00 | 0.00 | 45 | 1019.1 |
| 20260904090103 | 82 | 239 | 1.0 | 5.0 | 0.00 | 0.00 | 0.00 | 51 | 1019.1 |
| 20260904084552 | 80 | 238 | 0.0 | 4.0 | 0.00 | 0.00 | 0.00 | 54 | 1019.2 |
| 20260904083056 | 78 | 233 | 0.0 | 4.0 | 0.00 | 0.00 | 0.00 | 59 | 1019.1 |
| 20260904081547 | 75 | 235 | 0.0 | 4.0 | 0.00 | 0.00 | 0.00 | 62 | 1019.2 |
| 20260904080055 | 72 | 131 | 1.0 | 4.0 | 0.00 | 0.00 | 0.00 | 67 | 1019.1 |
| 20260904074544 | 70 | 255 | 0.0 | 4.0 | 0.00 | 0.00 | 0.00 | 70 | 1019.2 |
| 20260904073104 | 68 | 213 | 0.0 | 4.0 | 0.00 | 0.00 | 0.00 | 74 | 1019.2 |
| 20260904071549 | 65 | 229 | 0.0 | 8.0 | 0.00 | 0.00 | 0.00 | 77 | 1019.1 |
| 20260904070056 | 62 | 263 | 1.0 | 6.0 | 0.00 | 0.00 | 0.00 | 82 | 1019.1 |
| 20260904064605 | 59 | 231 | 0.0 | 5.0 | 0.00 | 0.00 | 0.00 | 85 | 1019.1 |
| 20260904063054 | 59 | 236 | 0.0 | 5.0 | 0.00 | 0.00 | 0.00 | 86 | 1019.1 |
| 20260904061605 | 58 | 249 | 0.0 | 6.0 | 0.00 | 0.00 | 0.00 | 88 | 1019.1 |
| 20260904060052 | 57 | 244 | 0.0 | 4.0 | 0.00 | 0.00 | 0.00 | 89 | 1018.9 |
| 20260904054551 | 56 | 227 | 0.0 | 3.0 | 0.00 | 0.00 | 0.00 | 91 | 1019.1 |
| 20260904053126 | 55 | 146 | 0.0 | 1.0 | 0.00 | 0.00 | 0.00 | 91 | 1019.1 |
| 20260904051551 | 55 | 145 | 0.0 | 3.0 | 0.00 | 0.00 | 0.00 | 91 | 1018.9 |
| 20260904050104 | 55 | 40 | 0.0 | 3.0 | 0.00 | 0.00 | 0.00 | 92 | 1019.0 |
| 20260904044556 | 55 | 343 | 0.0 | 2.0 | 0.00 | 0.00 | 0.00 | 92 | 1019.0 |
| 20260904043053 | 55 | 17 | 0.0 | 1.0 | 0.00 | 0.00 | 0.00 | 92 | 1019.0 |
| 20260904041603 | 55 | 278 | 0.0 | 1.0 | 0.00 | 0.00 | 0.00 | 91 | 1019.1 |
| 20260904040046 | 55 | 186 | 0.0 | 1.0 | 0.00 | 0.00 | 0.00 | 91 | 1019.3 |
| 20260904034543 | 56 | 245 | 0.0 | 3.0 | 0.00 | 0.00 | 0.00 | 91 | 1019.4 |
| 20260904033102 | 56 | 256 | 0.0 | 1.0 | 0.00 | 0.00 | 0.00 | 91 | 1019.6 |
| 20260904031602 | 56 | 228 | 0.0 | 1.0 | 0.00 | 0.00 | 0.00 | 91 | 1019.7 |
| 20260904030100 | 56 | 236 | 0.0 | 3.0 | 0.00 | 0.00 | 0.00 | 91 | 1019.8 |
| 20260904024545 | 56 | 298 | 0.0 | 1.0 | 0.00 | 0.00 | 0.00 | 91 | 1019.9 |
| 20260904023100 | 56 | 252 | 0.0 | 3.0 | 0.00 | 0.00 | 0.00 | 90 | 1020.1 |
| 20260904021555 | 56 | 223 | 0.0 | 2.0 | 0.00 | 0.00 | 0.00 | 90 | 1020.3 |
| 20260904020133 | 57 | 233 | 0.0 | 3.0 | 0.00 | 0.00 | 0.00 | 89 | 1020.3 |
| 20260904014649 | 57 | 255 | 0.0 | 3.0 | 0.00 | 0.00 | 0.00 | 89 | 1020.5 |
| 20260904013101 | 57 | 248 | 0.0 | 1.0 | 0.00 | 0.00 | 0.00 | 88 | 1020.6 |
| 20260904011602 | 58 | 214 | 0.0 | 2.0 | 0.00 | 0.00 | 0.00 | 88 | 1020.8 |
| 20260904010055 | 58 | 240 | 0.0 | 1.0 | 0.00 | 0.00 | 0.00 | 87 | 1021.0 |
| 20260904004601 | 58 | 228 | 0.0 | 2.0 | 0.00 | 0.00 | 0.00 | 87 | 1021.3 |
| 20260904003106 | 58 | 239 | 0.0 | 1.0 | 0.00 | 0.00 | 0.00 | 86 | 1021.4 |
| 20260904001543 | 58 | 263 | 0.0 | 1.0 | 0.00 | 0.00 | 0.00 | 86 | 1021.6 |
| 20260903234613 | 59 | 251 | 0.0 | 1.0 | 0.00 | 0.00 | 0.00 | 85 | 1021.7 |
| 20260903233049 | 60 | 219 | 0.0 | 1.0 | 0.00 | 0.00 | 0.00 | 84 | 1021.8 |
| 20260903231551 | 60 | 205 | 0.0 | 2.0 | 0.00 | 0.00 | 0.00 | 82 | 1021.7 |
| 20260903230108 | 61 | 234 | 0.0 | 1.0 | 0.00 | 0.00 | 0.00 | 81 | 1021.7 |